Weather History for Galesburg, IL

Change the Weather History Date:

Friday, November 15, 2013

  Actual Average Record
Temperature  
Mean Temperature 40 °F -  
Max Temperature 49 °F 48 °F 71 °F (2001)
Min Temperature 32 °F 30 °F 10 °F (1959)
Degree Days  
Heating Degree Days 24    
Moisture  
Dew Point 32 °F    
Average Humidity 72    
Maximum Humidity 89    
Minimum Humidity 57    
Precipitation  
Precipitation 0.00 in - - ()
Sea Level Pressure  
Sea Level Pressure 29.94 in    
Wind  
Wind Speed 7 mph (SSE)    
Max Wind Speed 15 mph    
Max Gust Speed -    
Visibility 10 miles    
Events      
Averages and records for this station are not official NWS values.
T = Trace of Precipitation, MM = Missing Value Source: NWS Daily Summary

Daily Weather History Graph

Daily Weather History Graph

Search for Another Location

Airport:

Trip Planner

Search our weather history database for the weather conditions in past years. The results will help you decide how hot, cold, wet, or windy it might be!

Date:

Astronomy

Nov. 15, 2013 Rise Set
Actual Time 6:49 AM CST 4:42 PM CST
Civil Twilight 6:19 AM CST 5:12 PM CST
Nautical Twilight 5:46 AM CST 5:45 PM CST
Astronomical Twilight 5:14 AM CST 6:18 PM CST
Moon 3:40 PM CST (11/15) 4:45 AM CST (11/15)
Length of Visible Light 10h 52m
Length of Day
9h 53m
Waxing Gibbous, 96% of the Moon is Illuminated
Nov 15
Waxing Gibbous
Nov 17
Full
Nov 25
Last Quarter
Dec 2
New
Dec 9
First Quarter

Hourly Weather History & Observations

Time (CST) Temp. Windchill Dew Point Humidity Pressure Visibility Wind Dir Wind Speed Gust Speed Precip Events Conditions
12:15 AM 36.1 °F 30.6 °F 24.4 °F 63% 29.96 in 10.0 mi SSW 6.9 mph - N/A   Clear
12:35 AM 35.1 °F 28.6 °F 24.4 °F 65% 29.96 in 10.0 mi South 8.1 mph - N/A   Clear
12:55 AM 35.2 °F 30.3 °F 24.8 °F 66% 29.96 in 10.0 mi South 5.8 mph - N/A   Clear
1:15 AM 34.7 °F 29.6 °F 24.4 °F 66% 29.96 in 10.0 mi South 5.8 mph - N/A   Clear
1:35 AM 35.1 °F 29.3 °F 24.8 °F 66% 29.96 in 10.0 mi South 6.9 mph - N/A   Clear
1:55 AM 35.4 °F 30.5 °F 24.6 °F 65% 29.96 in 10.0 mi South 5.8 mph - N/A   Clear
2:15 AM 35.6 °F 29.2 °F 24.8 °F 65% 29.96 in 10.0 mi South 8.1 mph - N/A   Clear
2:35 AM 36.5 °F 30.3 °F 25.0 °F 63% 29.96 in 10.0 mi South 8.1 mph - N/A   Clear
2:55 AM 36.7 °F 29.9 °F 25.2 °F 63% 29.95 in 10.0 mi South 9.2 mph - N/A   Clear
3:15 AM 36.5 °F 30.3 °F 25.3 °F 64% 29.95 in 10.0 mi South 8.1 mph - N/A   Clear
3:35 AM 34.9 °F 29.9 °F 25.2 °F 68% 29.94 in 10.0 mi South 5.8 mph - N/A   Clear
3:55 AM 33.8 °F 29.6 °F 25.2 °F 71% 29.94 in 10.0 mi South 4.6 mph - N/A   Clear
4:15 AM 33.8 °F 28.6 °F 25.0 °F 70% 29.95 in 10.0 mi South 5.8 mph - N/A   Clear
4:35 AM 32.9 °F 27.5 °F 24.8 °F 72% 29.95 in 10.0 mi South 5.8 mph - N/A   Clear
4:55 AM 32.9 °F 28.5 °F 24.8 °F 72% 29.95 in 10.0 mi South 4.6 mph - N/A   Scattered Clouds
5:15 AM 33.1 °F 28.7 °F 25.2 °F 73% 29.95 in 10.0 mi South 4.6 mph - N/A   Scattered Clouds
5:35 AM 32.9 °F 27.5 °F 25.3 °F 74% 29.95 in 10.0 mi South 5.8 mph - N/A   Clear
5:55 AM 32.9 °F 26.7 °F 25.7 °F 75% 29.96 in 10.0 mi South 6.9 mph - N/A   Clear
6:15 AM 33.3 °F 27.1 °F 26.2 °F 75% 29.97 in 10.0 mi South 6.9 mph - N/A   Clear
6:35 AM 33.3 °F 27.9 °F 26.4 °F 76% 29.97 in 10.0 mi South 5.8 mph - N/A   Clear
6:55 AM 33.6 °F 30.6 °F 26.6 °F 75% 29.97 in 10.0 mi South 3.5 mph - N/A   Clear
7:15 AM 33.1 °F 30.0 °F 27.3 °F 79% 29.97 in 10.0 mi South 3.5 mph - N/A   Mostly Cloudy
7:35 AM 34.9 °F 32.0 °F 29.1 °F 79% 29.97 in 10.0 mi South 3.5 mph - N/A   Overcast
7:55 AM 36.9 °F 33.1 °F 30.2 °F 77% 29.98 in 10.0 mi SSW 4.6 mph - N/A   Overcast
8:15 AM 38.3 °F 34.8 °F 31.5 °F 76% 29.98 in 10.0 mi South 4.6 mph - N/A   Overcast
8:35 AM 38.7 °F 33.6 °F 31.1 °F 74% 29.99 in 10.0 mi South 6.9 mph - N/A   Overcast
8:55 AM 39.2 °F 35.0 °F 30.9 °F 72% 29.99 in 10.0 mi South 5.8 mph - N/A   Overcast
9:15 AM 39.6 °F 36.3 °F 31.5 °F 73% 29.99 in 10.0 mi South 4.6 mph - N/A   Overcast
9:35 AM 41.4 °F 37.6 °F 32.2 °F 70% 29.98 in 10.0 mi South 5.8 mph - N/A   Overcast
9:55 AM 42.6 °F 38.4 °F 32.7 °F 68% 29.98 in 10.0 mi South 6.9 mph - N/A   Overcast
10:15 AM 43.7 °F 39.7 °F 33.8 °F 68% 29.98 in 10.0 mi SSW 6.9 mph - N/A   Overcast
10:35 AM 45.9 °F 41.2 °F 33.3 °F 61% 29.98 in 10.0 mi SSW 9.2 mph - N/A   Overcast
10:55 AM 47.3 °F - 33.4 °F 59% 29.98 in 10.0 mi SW 10.4 mph - N/A   Overcast
11:15 AM 47.5 °F - 33.6 °F 59% 29.97 in 10.0 mi SSW 12.7 mph - N/A   Overcast
11:35 AM 47.8 °F - 34.0 °F 59% 29.96 in 10.0 mi SSW 11.5 mph - N/A   Overcast
11:55 AM 48.4 °F - 34.0 °F 58% 29.96 in 10.0 mi SSW 12.7 mph - N/A   Overcast
12:15 PM 48.6 °F - 34.3 °F 58% 29.96 in 10.0 mi SSW 12.7 mph - N/A   Overcast
12:35 PM 48.6 °F - 34.7 °F 59% 29.95 in 10.0 mi SSW 11.5 mph - N/A   Overcast
12:55 PM 49.1 °F - 34.5 °F 57% 29.95 in 10.0 mi SSW 15.0 mph - N/A   Overcast
1:15 PM 49.5 °F - 35.1 °F 58% 29.94 in 10.0 mi SSW 11.5 mph - N/A   Overcast
1:35 PM 48.7 °F - 35.2 °F 60% 29.93 in 10.0 mi South 10.4 mph - N/A   Overcast
1:55 PM 49.1 °F - 36.0 °F 61% 29.93 in 10.0 mi South 10.4 mph - N/A   Overcast
2:15 PM 48.4 °F - 35.8 °F 62% 29.92 in 10.0 mi South 11.5 mph - N/A   Overcast
2:35 PM 49.1 °F - 36.3 °F 61% 29.92 in 10.0 mi South 9.2 mph - N/A   Overcast
2:55 PM 48.9 °F - 36.7 °F 63% 29.92 in 10.0 mi SSE 8.1 mph - N/A   Overcast
3:15 PM 49.1 °F - 36.9 °F 63% 29.92 in 10.0 mi SSE 6.9 mph - N/A   Overcast
3:35 PM 48.7 °F - 36.5 °F 63% 29.92 in 10.0 mi South 9.2 mph - N/A   Overcast
3:55 PM 48.2 °F - 37.2 °F 66% 29.92 in 10.0 mi South 8.1 mph - N/A   Overcast
4:15 PM 47.5 °F - 37.0 °F 67% 29.92 in 10.0 mi SSE 6.9 mph - N/A   Mostly Cloudy
4:35 PM 45.7 °F 43.4 °F 36.5 °F 70% 29.92 in 10.0 mi SSE 4.6 mph - N/A   Scattered Clouds
4:55 PM 44.6 °F 42.2 °F 36.5 °F 73% 29.92 in 10.0 mi SE 4.6 mph - N/A   Clear
5:15 PM 43.7 °F 40.3 °F 36.1 °F 75% 29.92 in 10.0 mi SE 5.8 mph - N/A   Clear
5:35 PM 42.6 °F 40.9 °F 36.1 °F 78% 29.92 in 10.0 mi ESE 3.5 mph - N/A   Clear
5:55 PM 41.7 °F 39.8 °F 36.0 °F 80% 29.92 in 10.0 mi ESE 3.5 mph - N/A   Clear
6:15 PM 40.6 °F 36.7 °F 35.6 °F 82% 29.91 in 10.0 mi ESE 5.8 mph - N/A   Clear
6:35 PM 40.3 °F 36.3 °F 35.6 °F 83% 29.91 in 10.0 mi ESE 5.8 mph - N/A   Clear
6:55 PM 40.1 °F 36.1 °F 35.8 °F 85% 29.91 in 10.0 mi ESE 5.8 mph - N/A   Clear
7:15 PM 40.1 °F 36.9 °F 35.8 °F 85% 29.91 in 10.0 mi ESE 4.6 mph - N/A   Clear
7:35 PM 40.6 °F 37.5 °F 35.8 °F 83% 29.90 in 10.0 mi ESE 4.6 mph - N/A   Clear
7:55 PM 40.6 °F 37.5 °F 35.6 °F 82% 29.90 in 10.0 mi ESE 4.6 mph - N/A   Clear
8:15 PM 40.3 °F 37.1 °F 35.4 °F 83% 29.90 in 10.0 mi ESE 4.6 mph - N/A   Clear
8:35 PM 40.1 °F 35.3 °F 35.2 °F 83% 29.89 in 10.0 mi ESE 6.9 mph - N/A   Clear
8:55 PM 39.9 °F 35.8 °F 34.9 °F 82% 29.89 in 10.0 mi SE 5.8 mph - N/A   Clear
9:15 PM 41.2 °F 37.3 °F 35.1 °F 79% 29.88 in 10.0 mi SE 5.8 mph - N/A   Clear
9:35 PM 41.4 °F 38.4 °F 35.1 °F 78% 29.88 in 10.0 mi SE 4.6 mph - N/A   Clear
9:55 PM 39.9 °F 35.1 °F 34.7 °F 82% 29.89 in 10.0 mi SSE 6.9 mph - N/A   Clear
10:15 PM 38.8 °F 34.6 °F 34.5 °F 84% 29.89 in 10.0 mi SSE 5.8 mph - N/A   Clear
10:35 PM 39.2 °F 34.2 °F 35.1 °F 85% 29.88 in 10.0 mi SE 6.9 mph - N/A   Clear
10:55 PM 39.2 °F 33.0 °F 35.6 °F 87% 29.89 in 10.0 mi SSE 9.2 mph - N/A   Clear
11:15 PM 39.4 °F 34.5 °F 36.0 °F 88% 29.88 in 10.0 mi SSE 6.9 mph - N/A   Clear
11:35 PM 39.9 °F 35.1 °F 36.5 °F 88% 29.87 in 10.0 mi SE 6.9 mph - N/A   Clear
11:55 PM 39.9 °F 34.5 °F 36.9 °F 89% 29.87 in 10.0 mi SSE 8.1 mph - N/A   Clear